CAPE
1357 1524 1660 1806 1829 1994 2294 2366 1975 1803 1725 1579 1471 1300 1271 1788 2033 1836 1501 1204 901 605 556 491 511 713 553 540 625 245 1 403 602 524 773 655 277 348 541 596 557 371 178
1669 1755 1693 1715 1910 1918 2017 2096 2047 1999 1825 1684 1827 1959 2177 2232 2104 1894 1666 1589 1158 854 696 486 435 582 543 795 708 846 878 573 397 366 652 765 608 403 512 525 477 423 214
1664 1544 1452 1668 1652 1666 1698 1740 1663 1658 1831 2141 2273 2129 2522 2393 2405 2385 2169 1949 1542 1087 623 427 162 302 607 876 739 592 829 937 1000 780 559 645 979 745 651 458 577 618 459
1465 1391 1292 1118 1047 995 1016 890 974 1586 2184 2339 2637 2662 2359 2771 2611 2352 2369 2088 1943 1536 1165 967 1000 1040 815 789 808 616 702 647 607 494 351 374 384 849 624 478 544 643 509
2890 2888 2912 2886 2866 2757 2703 2643 2492 2430 2685 2727 2445 2506 2765 2524 2567 2326 2519 2117 1196 546 798 1590 1578 1444 1228 819 730 667 369 316 231 277 274 307 302 333 685 471 474 309 620
2478 2420 2256 2396 2290 2362 2323 2303 2384 2367 2073 2150 2212 2223 2153 2274 2420 2211 1567 921 349 0 0 258 1342 1101 1007 1298 1184 908 657 287 241 62 4 13 356 336 461 608 593 433 285
1845 1491 1354 1429 1428 1456 1695 1604 1451 1572 1467 1508 1566 1873 1934 2045 1813 1748 1432 1129 343 2 46 39 523 97 18 560 1116 602 440 541 446 103 25 104 166 260 166 262 548 564 449
782 447 300 334 431 463 490 538 640 1072 1413 1348 1232 1505 1649 1782 1814 1602 1418 1226 1045 915 892 842 675 389 284 439 796 546 377 394 310 320 298 420 522 464 204 190 233 563 442
8 1 0 0 0 0 0 3 48 85 189 386 610 758 682 1056 1500 1133 1115 944 817 729 644 604 648 1073 1355 1041 666 466 531 515 473 353 339 248 505 753 688 587 479 526 635
0 0 0 0 0 0 0 0 0 0 0 0 1 35 192 293 73 391 861 902 882 737 698 625 524 440 283 224 291 488 535 502 618 843 643 365 150 366 667 708 720 369 440
0 0 0 0 0 0 0 0 0 0 0 0 0 0 0 0 0 0 77 320 521 586 463 377 252 11 0 0 0 11 254 513 464 312 455 794 687 550 549 605 576 572 316
0 0 0 0 0 0 0 0 0 0 0 0 0 0 0 0 0 0 0 0 0 8 66 48 5 0 0 0 0 0 0 0 0 0 0 0 33 297 558 553 504 552 547
0 0 0 0 0 0 0 0 0 0 0 0 0 0 0 0 0 0 0 0 0 0 0 0 0 0 0 0 0 0 0 0 0 0 0 0 0 90 398 561 478 511 559
0 0 0 0 0 0 0 0 0 0 0 0 0 0 0 0 0 0 0 0 0 0 0 0 0 0 0 0 0 0 0 0 2 5 3 4 28 141 189 237 228 207 129
0 0 0 0 0 0 0 0 0 0 0 0 0 0 0 0 0 0 0 0 0 0 0 0 0 0 0 0 0 0 2 35 64 130 122 127 146 255 167 237 125 80 12
0 0 0 0 0 0 0 0 0 0 0 0 0 0 0 0 0 0 0 0 0 0 0 0 0 0 0 0 0 0 0 0 2 37 124 145 101 64 70 84 146 228 296
0 0 0 0 0 1 0 0 0 0 1 7 4 1 0 0 0 0 0 0 0 0 0 0 0 0 5 3 0 0 0 0 0 0 32 107 50 41 53 61 62 51 36
0 0 0 0 0 0 0 0 0 2 9 7 0 0 0 0 0 0 0 0 0 0 0 0 0 5 3 0 4 1 0 0 0 0 0 13 107 86 102 50 78 76 7
0 0 0 0 0 0 1 3 2 7 9 0 0 0 0 0 0 0 0 0 0 0 0 0 0 1 0 0 0 0 0 0 0 2 3 0 0 1 6 22 13 17 73
0 0 0 0 0 0 0 0 1 0 4 0 0 0 0 0 0 0 0 0 0 0 0 0 0 1 3 3 1 0 0 0 0 0 0 2 0 0 0 0 0 0 0
0 0 0 0 0 0 0 0 0 0 0 0 0 0 0 0 0 0 0 0 0 0 0 0 0 0 0 0 0 2 2 2 1 1 0 0 0 0 0 0 0 0 0
0 0 0 0 0 0 0 0 0 0 0 0 0 0 0 0 0 0 0 0 0 0 0 0 0 0 0 0 0 0 0 0 0 0 0 2 1 0 0 0 0 0 0
0 0 0 0 0 0 0 0 0 0 0 0 0 0 0 0 0 0 0 0 0 0 0 7 8 0 0 0 0 0 0 0 1 3 2 1 1 3 1 1 0 0 1
0 0 0 0 0 0 0 0 0 0 0 0 0 0 0 0 0 0 0 0 0 0 0 0 15 3 0 0 0 0 0 0 0 3 1 0 0 2 2 6 16 13 0
0 0 0 0 0 0 0 0 0 0 0 0 0 0 0 0 0 0 0 0 0 0 0 0 0 0 0 0 0 0 0 0 0 1 1 1 0 0 0 2 7 10 18
0 0 0 0 0 0 0 0 0 0 0 0 0 0 0 0 0 1 5 1 0 0 0 0 0 0 0 0 0 0 0 0 0 0 2 0 0 0 2 2 2 4 1
CIN
-143 -141 -124 -110 -101 -92 -75 -66 -64 -56 -45 -31 -46 -78 -90 -73 -51 -47 -67 -72 -89 -93 -78 -65 -59 -48 -53 -46 -49 -63 -8 -48 -32 -38 -49 -34 -92 -68 -81 -83 -110 -131 -127
-109 -119 -124 -109 -103 -99 -92 -84 -68 -72 -64 -64 -40 -24 -36 -35 -42 -62 -58 -51 -65 -77 -80 -75 -67 -54 -54 -39 -43 -39 -50 -67 -72 -54 -73 -45 -52 -68 -60 -98 -102 -112 -117
-115 -125 -136 -125 -114 -116 -97 -96 -99 -85 -70 -48 -34 -24 -12 -19 -14 -25 -47 -41 -36 -57 -80 -77 -90 -73 -67 -53 -47 -47 -37 -39 -51 -52 -57 -52 -46 -81 -91 -105 -90 -92 -104
-108 -129 -148 -159 -152 -151 -110 -97 -119 -61 -20 -18 -16 -15 -14 -11 -12 -15 -18 -35 -29 -36 -52 -68 -57 -53 -77 -71 -61 -56 -44 -29 -37 -36 -55 -61 -50 -36 -57 -45 -52 -52 -57
-67 -62 -68 -54 -29 -32 -23 -19 -23 -24 -26 -13 -7 -9 -8 -6 -5 -16 -6 -14 -31 -51 -34 -7 -20 -23 -19 -41 -38 -47 -56 -36 -33 -27 -37 -38 -58 -44 -22 -46 -23 -54 -33
-120 -116 -129 -97 -79 -70 -56 -41 -38 -34 -29 -23 -17 -12 -12 -6 -3 -12 -35 -19 -90 0 0 -188 -82 -102 -96 -38 -15 -34 -27 -42 -40 -50 -48 -57 -46 -63 -49 -40 -24 -33 -29
-191 -207 -200 -180 -160 -134 -93 -85 -87 -66 -70 -60 -57 -14 -9 -8 -11 -16 -48 -53 -118 -90 -208 -245 -128 -219 -311 -102 -19 -37 -32 -32 -54 -88 -94 -120 -112 -97 -91 -65 -43 -40 -58
-311 -368 -411 -369 -296 -263 -239 -216 -179 -97 -47 -48 -53 -26 -16 -10 -7 -16 -19 -38 -35 -36 -52 -54 -74 -117 -149 -112 -31 -34 -58 -64 -97 -97 -87 -85 -78 -80 -90 -77 -67 -41 -40
-107 -122 -129 0 0 0 0 -104 -516 -431 -321 -200 -106 -78 -73 -33 -6 -15 -15 -41 -55 -53 -45 -52 -56 -20 -8 -12 -17 -23 -25 -55 -79 -87 -83 -95 -69 -40 -46 -57 -45 -20 -19
0 0 0 0 0 0 0 0 0 0 0 0 -114 -323 -158 -89 -144 -53 -23 -18 -13 -17 -11 -18 -37 -52 -53 -45 -28 -12 -5 -12 -12 -9 -22 -85 -119 -74 -34 -28 -37 -31 -38
0 0 0 0 0 0 0 0 0 0 0 0 0 0 0 0 0 0 -107 -85 -30 -16 -12 -7 -30 -136 0 0 0 -80 -62 -12 -11 -22 -17 -3 -14 -33 -46 -34 -46 -31 -26
0 0 0 0 0 0 0 0 0 0 0 0 0 0 0 0 0 0 0 0 0 -94 -200 -214 -81 0 0 0 0 0 0 0 0 0 0 0 -106 -41 -32 -42 -65 -51 -40
0 0 0 0 0 0 0 0 0 0 0 0 0 0 0 0 0 0 0 0 0 0 0 0 0 0 0 0 0 0 0 0 0 0 0 0 0 -70 -3 -4 -29 -40 -29
0 0 0 0 0 0 0 0 0 0 0 0 0 0 0 0 0 0 0 0 0 0 0 0 0 0 0 0 0 0 0 0 -18 -13 -16 -15 -66 -23 -11 -5 -2 -18 -8
0 0 0 0 0 0 0 0 0 0 0 0 0 0 0 0 0 0 0 0 0 0 0 0 0 0 0 0 0 0 -46 -21 -99 -40 -40 -11 -3 -3 -10 0 -16 -25 -38
0 0 0 0 0 0 0 0 0 0 0 0 0 0 0 0 0 0 0 0 0 0 0 0 0 0 0 0 0 0 0 0 -3 -45 -99 -43 -27 -34 -15 -20 -14 -10 -3
0 0 0 0 0 -1 0 0 0 0 -21 -35 -41 -19 0 0 0 0 0 0 0 0 0 0 0 0 -9 -28 0 0 0 0 0 0 -5 0 -13 -1 -8 -23 -21 -27 -35
0 0 0 0 0 0 0 0 0 -17 -14 -42 0 0 -39 0 0 0 0 0 0 0 0 0 0 -32 -23 0 -33 -49 0 0 0 -2 0 -17 -1 -2 0 -22 -38 -43 -52
0 0 0 0 0 0 -12 -9 -12 -12 -12 0 0 0 0 0 0 0 0 0 0 0 0 0 0 0 0 0 0 0 0 0 0 -3 -5 -3 0 0 -31 -2 -4 -11 -31
0 0 0 0 0 0 0 0 -2 -1 -14 0 0 0 0 0 0 0 0 0 0 0 0 0 0 0 0 0 0 0 0 0 0 0 0 -12 0 0 0 0 0 0 0
0 0 0 0 0 0 0 0 0 0 0 0 0 0 0 0 0 0 0 0 0 0 0 0 0 0 0 0 0 0 0 0 0 0 0 0 0 0 0 0 0 0 0
0 0 0 0 0 0 0 0 0 0 0 0 0 0 0 0 0 0 0 0 0 0 0 0 0 0 0 0 0 0 0 0 0 0 0 0 0 0 0 0 0 0 0
0 0 0 0 0 0 0 0 0 0 0 0 0 0 0 0 0 0 0 0 0 0 0 -26 -31 0 0 0 0 0 0 0 0 0 0 0 0 0 0 -9 -13 0 -6
0 0 0 0 0 0 0 0 0 0 0 0 0 0 0 0 0 0 0 0 0 0 0 -1 -20 -18 0 0 0 0 0 0 0 0 0 0 0 0 0 -20 -11 -22 0
0 0 0 0 0 0 0 0 0 0 0 0 0 0 0 0 0 0 0 0 0 0 0 0 0 0 0 0 0 0 0 0 0 0 0 0 0 0 0 -8 -7 -25 -17
0 0 0 0 0 0 0 0 0 0 0 0 0 0 0 0 0 -9 -17 -20 -7 0 0 0 0 0 0 0 0 0 0 0 0 0 0 0 0 0 0 0 -2 -24 0
Wind_Speed
14 12 8 4 5 6 6 5 3 5 18 24 1 6 6 7 7 7 8 9 10 10 11 16 23 34 36 35 34 30 15 11 17 29 21 26 15 11 14 17 13 17 19
12 9 10 11 11 11 10 8 7 6 8 26 13 2 6 5 4 4 5 5 9 8 9 13 23 32 32 32 34 31 27 18 18 35 25 26 14 10 10 12 11 15 17
11 11 10 8 7 8 8 8 11 15 19 10 12 3 3 5 3 2 2 3 4 2 1 5 17 21 29 30 31 23 22 24 21 21 29 24 20 12 5 6 8 9 8
8 6 10 10 8 9 9 13 15 16 13 8 2 4 3 4 5 5 6 6 7 10 10 5 4 10 12 11 13 15 9 15 26 32 30 29 24 17 12 9 8 7 8
15 17 18 15 14 15 14 16 18 19 18 14 12 9 6 7 7 9 10 10 17 21 30 17 9 8 9 9 10 12 11 11 12 25 31 30 32 25 16 18 13 10 9
17 19 19 19 19 18 19 21 22 22 21 20 22 22 21 17 11 8 12 23 16 4 16 21 11 19 13 20 14 13 11 11 12 12 14 35 47 32 28 20 18 21 20
19 20 21 21 21 22 22 22 21 19 19 24 24 23 21 22 22 21 20 17 6 7 10 15 21 20 11 10 10 18 22 14 12 15 12 13 19 34 29 29 24 23 23
20 21 22 21 22 22 23 23 24 24 25 27 27 27 27 25 22 18 18 18 15 11 11 12 21 25 20 15 22 20 12 16 14 15 15 16 19 26 25 29 30 27 30
20 21 21 22 22 23 24 25 24 26 26 28 28 26 26 27 26 17 13 14 13 13 15 17 17 13 17 15 23 22 16 16 18 16 22 25 23 23 26 28 30 31 29
22 22 22 22 23 23 23 24 25 24 24 25 26 26 27 27 27 20 13 11 13 15 17 19 19 14 18 20 20 15 14 23 28 24 24 21 25 27 29 26 31 34 37
22 22 21 22 23 21 24 24 24 23 23 24 24 24 24 27 28 28 28 19 17 18 21 25 22 25 30 31 31 32 36 37 38 36 31 29 28 28 27 31 31 28 35
22 22 22 20 21 21 24 24 25 26 24 24 25 25 23 24 25 27 28 26 25 24 25 26 29 34 37 38 39 39 40 40 36 35 35 35 32 32 32 32 34 34 35
22 21 21 21 20 20 23 25 22 24 26 28 28 28 28 28 25 29 30 29 27 28 27 28 31 35 38 37 38 37 36 35 35 32 32 33 33 34 28 28 30 33 35
22 23 25 23 23 24 25 25 23 23 26 28 28 29 30 29 28 30 32 31 31 31 32 33 34 35 35 33 36 36 33 31 30 31 32 33 34 33 31 26 27 30 31
22 21 23 24 24 25 25 25 23 22 25 24 26 27 29 31 31 31 31 32 32 32 34 34 35 35 37 37 36 34 33 32 31 32 32 34 35 32 31 24 19 22 26
21 22 21 24 24 25 25 24 23 21 22 25 26 26 29 28 32 35 34 32 32 30 30 32 32 31 34 35 35 34 35 37 36 34 33 33 35 34 32 26 24 27 29
20 21 20 23 23 23 23 22 22 26 25 27 27 28 28 29 34 34 33 32 31 27 30 33 32 34 33 33 34 35 36 36 37 36 34 34 35 33 32 32 30 32 33
19 21 20 23 22 22 21 22 22 23 27 26 28 29 33 33 31 32 33 32 32 31 32 33 34 34 35 36 37 36 37 37 35 35 35 35 33 34 34 33 33 35 38
20 20 21 21 22 21 23 22 22 24 26 24 28 30 33 32 32 32 33 33 33 34 35 36 36 36 36 36 36 36 36 36 35 35 36 36 35 35 36 34 36 35 39
18 18 18 21 22 24 23 25 25 28 24 24 28 31 32 31 32 34 33 33 33 33 34 36 36 36 35 35 36 35 35 36 37 36 37 36 36 36 38 39 38 38 37
17 18 18 18 21 21 22 24 26 27 28 24 27 29 32 31 28 30 31 31 32 32 33 34 34 35 34 34 34 35 36 36 36 38 39 38 38 38 37 37 38 38 39
15 16 17 19 18 21 23 22 24 26 27 28 27 27 28 31 28 29 27 29 30 30 29 30 32 33 33 34 33 35 37 38 39 40 40 40 40 39 39 37 37 37 38
13 13 15 20 22 21 25 25 26 27 28 29 30 30 29 30 28 29 28 29 33 34 29 28 28 30 30 31 31 35 38 40 40 38 38 40 40 39 38 38 37 38 36
14 14 14 17 20 21 22 23 25 28 30 30 31 29 29 30 32 27 27 28 31 34 34 34 26 29 29 31 33 37 38 39 39 35 36 37 38 39 38 38 37 36 37
15 17 17 18 18 20 23 23 27 30 31 31 31 30 30 31 30 27 27 27 29 33 33 33 31 32 31 33 38 41 41 41 39 37 34 34 37 37 36 36 37 36 34
15 16 17 21 21 24 24 25 27 29 31 31 31 31 32 31 29 29 26 29 30 32 32 29 31 32 35 37 40 42 42 41 40 38 35 33 35 36 35 34 34 36 36
Wind_Direction
170 175 176 180 188 191 193 200 263 300 219 257 274 173 158 159 153 154 160 157 164 161 169 193 200 230 237 236 246 263 300 301 293 270 295 285 179 181 174 177 171 174 179
155 158 176 179 180 185 190 196 204 205 192 228 216 237 189 176 168 169 172 167 171 164 164 182 199 214 217 221 257 267 280 292 294 256 287 290 311 176 183 177 173 176 180
130 150 157 154 164 179 185 183 190 197 206 190 191 176 202 197 198 232 239 279 312 284 176 164 187 191 210 221 219 207 285 287 291 294 283 291 298 289 242 205 187 185 190
76 130 175 170 162 176 175 201 203 205 198 189 197 206 213 240 245 264 291 291 296 304 303 290 213 194 203 215 206 206 249 280 289 283 287 284 282 285 281 263 219 265 213
11 1 3 18 10 10 7 347 338 331 322 321 324 325 307 305 292 287 291 289 306 302 287 297 267 259 239 251 275 275 271 269 277 289 286 284 274 272 264 277 269 259 224
6 356 354 353 349 352 341 332 327 325 323 322 316 315 318 318 315 272 304 307 310 304 211 220 234 214 218 221 252 256 265 264 248 266 270 256 248 267 270 270 268 273 279
2 355 353 351 348 340 336 333 335 341 338 319 316 318 320 318 317 317 319 320 278 235 230 217 220 223 253 292 265 233 230 246 265 289 244 221 260 270 273 270 272 266 271
357 355 353 352 347 341 335 332 330 330 325 315 315 315 315 317 321 323 321 321 319 302 284 259 234 235 239 267 299 298 265 234 241 240 243 254 263 275 270 269 270 271 273
359 357 355 353 347 340 332 330 332 328 324 320 320 323 323 319 320 329 328 325 320 314 311 307 302 287 293 280 300 300 291 288 291 255 236 233 238 268 269 272 267 270 270
352 352 352 352 347 343 338 335 333 334 334 330 326 327 325 322 322 328 327 321 319 319 319 316 312 305 303 304 302 291 269 301 302 300 293 248 238 237 236 249 267 265 266
355 355 356 353 347 351 344 340 340 343 344 343 343 342 338 333 331 326 321 323 320 319 318 315 315 312 305 303 303 300 295 297 298 300 299 294 289 281 270 266 258 253 265
355 358 359 5 2 358 349 343 337 336 341 347 345 344 352 351 349 346 341 339 331 321 318 315 311 303 300 298 298 298 298 299 300 299 297 294 294 292 280 266 264 259 259
356 3 5 3 5 6 353 341 352 349 344 339 337 335 334 335 339 335 333 334 331 325 323 319 311 305 303 304 303 302 303 304 305 300 295 296 298 299 292 275 264 264 263
355 353 352 0 360 356 356 351 350 351 347 344 343 342 341 339 337 333 330 329 327 324 321 316 312 310 308 308 306 306 307 309 307 306 302 300 299 300 296 285 273 261 264
351 1 356 355 356 353 353 351 356 358 354 354 353 353 351 347 346 341 337 332 330 328 323 321 317 315 311 310 309 308 309 309 307 304 304 304 304 299 300 292 272 261 262
358 357 5 2 359 359 355 350 353 359 357 352 350 350 347 347 342 338 337 335 336 335 334 332 328 326 321 319 316 315 314 312 309 307 305 304 303 303 296 292 279 271 270
3 4 10 7 7 7 7 8 360 351 354 349 350 351 351 347 341 344 344 342 341 344 335 333 331 327 327 326 324 322 317 320 314 312 311 307 303 303 301 292 282 279 277
15 5 12 7 11 9 13 8 5 358 355 2 2 357 351 348 351 351 349 348 345 344 339 334 332 330 327 325 322 322 321 320 320 318 313 314 309 304 299 297 291 281 278
11 14 13 17 14 11 6 3 3 360 357 3 359 358 355 354 353 352 350 346 341 339 337 334 332 329 327 327 325 325 323 322 319 317 315 313 309 305 304 300 302 293 283
21 21 19 19 12 10 9 5 2 357 4 5 2 359 358 356 354 353 352 351 348 345 341 338 336 332 329 329 328 326 325 323 321 319 317 314 311 308 300 299 295 296 292
29 24 22 27 19 16 10 9 2 359 1 4 1 2 359 353 353 355 356 356 353 349 347 345 345 342 339 336 332 329 326 324 322 318 315 313 309 306 305 300 295 294 292
30 36 32 21 21 16 12 14 10 7 1 359 359 359 0 356 357 357 358 356 355 354 353 351 348 348 347 345 341 337 332 327 323 317 312 310 306 306 303 299 297 295 290
39 35 36 22 15 15 6 6 6 4 1 358 355 355 357 357 357 355 355 353 350 346 350 349 349 348 350 350 348 341 334 331 328 324 319 313 308 305 303 300 297 293 294
22 25 34 23 16 15 14 10 7 4 359 357 355 356 356 355 350 354 355 353 350 346 345 345 352 350 351 349 346 342 339 334 331 333 327 321 313 308 303 299 299 297 293
24 18 23 16 18 18 14 15 8 3 359 356 357 355 355 354 351 351 352 353 351 349 347 346 349 349 352 348 341 338 336 333 333 331 333 329 323 316 309 304 299 298 297
19 15 17 10 26 18 16 13 8 5 2 360 359 357 353 353 354 353 356 351 350 348 347 348 347 348 345 342 339 336 335 334 333 332 329 331 324 322 318 317 306 296 293